Wind_Speed
22 22 21 20 20 19 18 18 17 16 16 16 15 15 15 14 14 14 14 14 14 14 14 14 14 14 14 13 13 13 12 12 12 12 12 12 12 12 13 13 13 13 14 14 14 15 16 16 17 17 18 18 19 19 19 20 21 21 21 21 20 18 17 16 15 15 15 17 18 19 20 21 21 20 19 18 19 21 21 20 21 22 21 20 19 19 19 19
24 23 23 22 21 20 20 19 19 18 18 17 17 17 17 17 16 17 17 17 17 16 16 16 16 16 16 15 15 15 15 15 15 15 15 15 15 15 16 16 16 16 16 16 17 18 18 18 18 19 19 20 21 21 21 22 22 22 22 21 20 18 17 17 16 16 16 18 19 20 21 22 22 21 21 19 21 23 23 21 22 24 23 21 19 18 19 19
25 25 24 24 23 22 22 21 21 20 20 19 19 19 19 19 19 19 19 19 19 18 18 18 17 17 17 17 17 17 17 17 17 17 17 18 18 18 18 19 19 19 19 19 19 20 20 20 20 20 21 22 23 23 23 24 24 23 22 21 19 19 18 18 17 17 18 19 20 21 21 23 24 23 22 21 22 25 24 23 23 25 26 24 22 20 19 19
27 27 26 25 25 24 23 23 23 22 22 22 22 22 22 22 22 22 21 21 20 19 19 19 19 18 18 18 18 18 18 18 18 18 19 19 20 20 20 21 21 21 21 21 21 21 22 22 22 22 23 25 26 26 25 25 23 22 21 19 19 19 19 19 19 19 20 20 21 22 23 24 25 24 24 23 23 25 27 26 26 26 26 27 25 23 21 20
29 28 28 27 26 26 25 25 25 25 25 24 24 24 24 24 24 23 23 22 21 21 20 20 20 20 19 19 19 19 20 20 20 20 20 21 22 22 22 23 23 23 23 23 23 23 23 24 24 25 26 27 27 27 25 23 22 21 20 19 18 19 21 21 21 21 22 22 23 24 24 25 26 26 26 25 25 26 27 28 28 27 27 27 28 26 24 23
31 30 30 29 28 28 28 27 27 27 27 27 27 27 27 26 26 25 24 23 22 22 21 21 21 21 20 20 20 21 21 21 21 22 22 22 23 24 24 24 25 25 25 25 25 25 26 26 27 28 28 28 27 25 23 21 19 19 19 19 19 20 22 23 23 24 24 25 26 26 26 26 26 27 28 27 27 27 27 28 29 30 29 28 27 27 27 25
33 32 32 31 31 30 30 30 30 30 30 30 29 29 29 28 27 25 24 23 23 22 22 22 22 22 21 21 22 22 23 23 23 24 25 25 26 26 26 27 27 27 27 27 28 28 29 29 29 29 28 27 25 23 20 19 18 18 19 20 20 21 22 24 25 26 26 27 28 28 28 28 26 27 29 29 29 29 28 28 28 29 30 29 28 27 27 27
35 35 34 34 33 33 33 32 32 32 32 32 31 31 29 28 27 26 25 24 24 23 23 23 23 23 23 23 23 25 26 26 26 27 27 28 28 28 28 29 29 29 29 29 29 29 29 29 28 26 25 23 22 21 20 19 18 18 19 20 21 22 23 24 25 27 28 29 30 29 29 29 27 27 29 29 30 30 29 28 28 28 28 29 29 28 27 26
38 38 37 36 36 35 35 35 35 34 34 33 32 31 30 29 28 27 26 25 25 25 25 25 25 25 25 25 26 27 29 28 29 29 29 29 28 28 28 28 28 28 27 27 27 27 26 25 24 23 22 21 21 22 21 21 21 21 21 22 23 24 25 26 27 28 29 30 31 29 30 30 28 28 29 29 30 30 30 29 28 27 27 27 28 29 29 27
41 40 39 39 38 38 37 37 37 36 35 34 32 31 30 29 28 28 28 27 27 27 27 27 27 27 27 28 28 30 31 30 30 30 29 28 27 26 26 26 26 25 25 25 24 24 24 24 22 22 22 22 23 24 24 25 25 25 25 25 26 26 27 28 28 29 29 30 31 29 29 29 28 29 30 30 31 31 30 28 27 27 27 27 26 27 28 28
42 42 41 40 40 39 39 38 37 36 35 34 33 32 31 30 30 30 30 29 29 29 29 30 30 30 30 30 30 32 32 31 30 30 28 28 27 26 26 26 27 27 26 25 25 26 26 25 24 25 25 25 26 26 26 27 27 28 27 27 28 27 27 29 29 28 29 30 31 29 27 27 28 30 31 32 32 32 31 29 27 27 26 26 26 26 26 27
43 43 42 41 41 40 39 38 38 37 36 35 34 33 32 32 32 32 32 32 32 32 32 33 33 33 32 31 31 32 32 31 30 30 29 29 29 29 29 29 29 29 28 28 28 28 28 27 27 27 27 27 27 28 28 28 29 29 29 28 28 28 26 28 28 26 27 29 31 30 27 25 26 30 31 33 33 33 32 29 27 27 27 27 26 26 26 27
44 44 43 42 42 41 40 39 39 38 37 37 36 35 35 35 35 35 35 35 35 35 35 35 35 34 33 31 31 32 31 31 31 31 31 31 31 31 31 31 30 30 29 29 29 29 29 28 29 28 28 28 28 29 29 29 29 30 30 28 27 26 25 26 26 26 28 30 31 32 29 23 24 28 31 33 33 33 32 30 28 28 27 27 27 27 27 28
45 44 44 44 43 42 42 41 41 40 39 39 38 38 38 38 38 38 38 38 37 37 37 36 35 35 33 30 30 31 31 31 32 32 32 32 32 32 32 31 30 30 30 29 29 29 30 30 30 30 29 29 28 28 29 29 29 29 30 28 27 25 22 24 26 27 30 32 33 33 31 24 22 27 30 32 33 33 33 30 30 30 29 29 28 28 28 28
46 45 45 44 44 44 44 43 43 42 41 41 40 40 40 40 40 39 39 39 38 38 37 36 35 34 32 29 30 31 32 33 33 34 34 33 33 32 32 31 30 30 30 30 30 31 31 32 32 31 29 29 28 28 29 29 29 29 30 30 29 27 23 23 26 29 32 34 35 35 33 27 23 26 30 32 33 32 32 31 32 33 32 32 31 30 29 28
48 47 46 45 45 45 45 44 44 43 42 42 42 41 41 41 41 40 40 39 38 38 37 36 35 35 33 31 31 32 33 34 35 35 35 34 34 32 31 31 31 31 32 32 32 33 33 33 32 31 30 28 28 29 30 30 29 30 32 31 30 29 28 25 26 30 33 35 36 35 34 30 27 27 30 32 32 30 30 30 31 33 33 32 32 30 29 29
49 49 48 47 47 46 46 45 44 43 43 42 42 42 42 41 41 41 40 39 39 38 38 37 36 37 35 33 33 34 35 36 35 35 35 34 33 32 32 32 32 33 33 33 34 34 34 33 32 31 30 28 28 31 33 32 31 32 33 33 32 32 32 29 27 30 34 35 36 34 33 30 28 28 30 32 30 28 27 27 28 30 30 30 30 30 29 29
49 49 49 49 48 48 47 46 44 43 43 43 42 42 41 41 41 41 41 40 40 39 39 39 38 39 37 36 36 36 36 36 35 35 34 34 34 33 34 34 34 34 34 34 34 34 34 33 33 31 29 28 31 33 35 34 33 34 34 34 35 34 34 32 30 32 34 35 34 33 32 31 28 28 30 31 28 27 25 25 25 26 28 28 28 29 29 29
48 48 48 49 49 49 48 47 45 44 44 43 43 43 43 43 43 42 42 42 42 41 41 40 40 40 38 37 37 37 36 36 35 34 34 34 34 35 35 34 34 33 33 34 34 35 34 35 34 31 28 30 34 36 36 35 35 35 35 36 37 36 34 33 33 34 35 35 33 31 32 31 28 28 30 29 27 27 26 25 25 26 27 27 28 29 29 29
46 47 47 48 49 49 49 48 47 46 45 45 45 45 44 44 45 44 44 44 43 42 42 41 40 39 38 37 37 37 36 35 35 34 35 35 35 35 34 34 33 33 33 34 36 35 35 37 35 30 30 34 37 36 36 37 37 37 37 38 38 37 35 33 34 34 35 37 34 32 33 31 29 29 29 29 28 28 28 28 29 28 27 28 28 29 29 29
46 46 46 46 47 48 48 48 47 47 46 46 46 46 45 45 45 45 44 43 42 42 41 40 39 38 37 38 38 38 37 36 35 35 35 35 35 35 34 34 34 34 34 36 37 36 38 39 34 30 33 37 36 36 37 37 38 38 38 39 38 36 35 34 34 34 36 38 36 33 34 32 29 29 29 29 30 31 31 32 33 31 28 28 29 29 29 29
45 45 45 45 45 45 45 45 45 45 45 45 45 45 44 44 44 43 43 42 40 40 40 40 40 39 38 40 40 39 39 37 35 34 34 35 34 35 35 35 35 36 37 38 38 38 40 37 32 32 36 37 36 37 38 38 39 39 39 39 37 35 35 35 34 34 36 37 36 35 35 33 31 30 30 32 33 34 35 36 36 33 30 29 29 29 29 29
46 45 44 44 44 44 43 42 42 42 42 42 42 42 42 42 42 42 43 42 40 40 41 41 41 41 40 41 41 41 40 37 35 35 34 35 35 36 38 37 37 39 39 38 39 41 41 35 33 36 38 37 38 39 39 39 39 39 39 38 36 34 36 36 34 35 36 37 36 36 37 36 33 33 34 34 35 36 38 39 37 34 31 30 29 29 30 30
47 46 45 45 45 44 43 42 42 42 42 42 42 42 42 43 43 43 44 45 43 40 41 42 42 42 41 41 41 41 40 37 37 36 35 36 37 39 39 39 40 40 39 39 40 42 40 35 36 39 40 40 40 39 39 39 40 39 38 36 35 35 36 36 34 35 37 38 38 38 39 38 35 35 36 36 36 38 40 39 37 35 34 32 31 31 31 32
49 48 47 47 47 45 44 44 43 43 43 43 44 43 44 44 44 44 44 46 45 40 40 42 43 43 42 41 41 40 41 40 39 38 37 38 39 40 40 40 41 40 39 40 42 42 39 36 39 41 41 41 40 39 38 39 39 38 35 34 35 35 34 35 36 37 38 39 39 40 42 40 37 37 38 36 37 39 39 39 37 37 36 35 34 34 34 34
51 50 49 49 49 47 46 45 45 45 45 44 45 44 44 44 44 45 45 47 48 43 40 42 45 46 44 42 42 42 43 42 41 41 41 41 41 42 42 42 41 40 40 42 43 42 38 38 41 41 40 41 39 37 37 38 38 35 33 33 34 35 34 35 37 39 40 41 41 42 43 42 41 43 41 37 38 39 39 39 39 38 38 37 38 38 38 37
52 51 51 51 50 49 48 47 46 46 46 45 45 45 45 46 46 46 46 50 52 47 44 45 46 47 46 44 43 44 45 45 44 44 44 44 44 44 44 43 41 40 41 42 42 40 38 38 40 39 39 38 36 35 36 36 36 33 32 33 35 36 37 38 39 41 42 43 44 45 43 42 45 46 45 42 40 40 40 41 42 41 41 41 41 41 40 40
53 52 52 52 51 50 49 48 48 47 46 46 46 46 47 47 48 48 48 53 55 52 49 48 47 47 47 46 45 46 47 47 47 47 46 46 46 44 44 43 41 40 41 41 40 39 38 38 37 37 36 34 34 34 35 34 34 32 32 34 36 37 39 40 41 43 44 45 47 46 42 44 48 48 49 49 45 43 44 45 45 45 45 44 43 43 43 43
55 54 53 53 53 52 51 50 48 47 48 48 48 48 49 49 49 50 51 55 57 55 53 51 48 48 47 47 47 47 47 47 48 47 46 46 45 44 43 42 41 40 40 40 39 39 38 36 35 35 33 32 33 34 33 33 33 33 34 36 38 40 41 42 44 45 45 47 48 46 41 44 49 50 51 52 49 47 48 49 49 49 48 47 46 46 47 47
56 55 54 55 54 53 52 50 49 49 49 49 49 50 50 51 51 52 55 56 57 57 56 53 51 49 48 47 47 47 46 46 45 45 44 44 43 43 42 41 41 40 40 39 38 37 36 35 34 32 31 31 32 32 33 33 34 34 36 38 40 42 43 45 46 46 47 48 48 45 42 45 50 51 51 52 51 51 51 52 52 52 51 50 50 50 51 51
58 57 56 56 55 54 53 51 50 50 51 51 51 51 52 53 54 56 58 56 56 57 57 56 53 49 47 46 46 45 44 43 43 42 42 41 41 41 39 39 40 39 39 37 34 34 34 33 32 31 31 32 32 32 33 34 35 37 39 40 42 44 45 46 47 47 48 49 48 47 46 49 53 53 51 52 53 53 54 54 54 53 53 52 52 52 52 53
60 59 58 57 56 55 54 52 51 52 53 52 52 52 51 53 57 58 56 54 56 58 57 55 52 48 46 46 44 43 42 41 41 40 40 40 39 39 38 38 38 37 36 34 32 32 33 32 32 32 32 32 32 33 34 35 37 38 40 42 43 45 46 47 48 49 50 50 49 50 51 54 54 53 52 53 53 54 54 55 55 54 54 53 53 53 53 53
62 61 61 60 58 57 55 52 52 54 53 52 53 53 51 54 59 58 54 54 56 56 54 52 50 48 46 44 43 42 41 40 39 38 38 38 37 37 37 37 36 36 36 34 33 34 34 32 32 33 33 34 35 35 35 37 39 40 41 43 45 46 48 49 49 50 52 51 51 52 55 56 55 53 53 53 53 54 54 54 54 54 53 53 53 53 53 53
63 63 62 62 60 59 57 55 55 55 54 53 54 53 55 59 61 58 56 56 54 50 49 48 48 47 46 44 43 42 41 39 38 37 37 37 37 36 36 36 37 37 37 37 36 35 35 34 34 34 35 36 37 37 38 40 42 43 44 45 47 48 49 50 51 52 53 53 53 55 57 57 56 53 53 53 54 54 54 53 53 53 53 53 53 53 54 55
63 63 62 62 61 60 59 58 57 56 55 54 54 58 62 63 62 60 59 56 50 46 45 46 47 46 46 45 44 43 41 40 38 38 37 37 36 36 37 37 38 38 38 37 36 36 37 37 36 36 37 39 40 41 42 43 45 46 46 48 49 48 49 51 53 54 55 55 56 56 58 57 55 54 55 55 56 55 54 54 53 53 53 53 53 54 56 58
60 59 59 57 56 57 59 59 58 57 56 54 56 63 66 63 61 59 55 49 44 42 43 46 46 46 46 45 44 43 42 40 39 39 38 37 37 37 37 38 38 38 38 37 37 39 39 39 38 38 39 41 43 44 45 46 47 49 49 49 49 49 51 53 54 54 54 57 57 56 57 56 55 57 58 57 56 55 54 54 53 53 53 53 55 57 59 61
53 52 51 48 47 51 56 58 58 58 57 57 60 64 65 62 58 55 50 45 43 42 43 44 44 45 46 45 45 44 43 42 41 41 39 38 39 39 38 38 39 40 38 38 39 41 42 42 42 43 43 44 45 46 47 49 50 50 50 49 49 51 52 52 53 53 54 57 57 55 55 56 57 61 59 55 54 54 54 54 54 54 55 56 59 61 62 63
50 51 50 46 45 49 52 54 56 57 57 61 64 63 60 59 55 51 48 45 43 43 43 43 45 47 48 48 47 45 45 45 44 43 41 41 41 41 40 40 41 41 40 41 42 43 44 45 46 47 48 48 49 50 51 51 50 50 50 49 49 51 51 50 52 53 54 56 58 57 57 59 61 61 57 54 53 54 54 55 55 56 58 60 62 63 63 63
53 56 56 52 51 51 51 52 54 57 61 66 65 58 55 55 53 50 49 48 47 46 44 44 46 48 48 48 48 47 47 46 45 43 43 42 42 43 42 43 43 42 43 44 45 46 47 49 51 52 52 53 53 54 53 51 49 49 49 50 50 50 50 50 51 52 53 55 57 58 59 62 62 59 57 56 55 55 56 57 58 60 61 62 63 62 62 61
56 59 59 55 56 56 55 56 59 62 65 66 62 56 54 54 54 53 52 52 52 50 48 46 46 47 48 48 49 49 49 47 46 45 44 44 45 46 46 46 46 45 45 47 48 49 51 53 54 55 56 57 57 57 55 52 51 51 50 51 51 50 49 50 50 50 52 55 57 59 61 62 62 61 62 61 60 60 60 60 60 61 62 62 61 61 61 62
61 64 62 58 57 56 57 60 63 65 66 65 61 58 57 56 56 56 55 55 54 53 51 49 48 49 50 50 51 51 51 50 48 48 48 48 49 49 49 49 49 48 49 50 51 51 52 54 56 58 60 61 60 60 58 57 56 55 52 50 49 48 48 51 53 53 53 57 60 62 65 65 64 65 66 65 64 64 62 60 60 60 61 61 60 61 62 63
65 67 65 62 60 56 55 58 61 63 65 65 63 61 59 57 57 58 58 58 56 54 52 50 50 50 51 51 53 54 53 52 51 51 52 53 53 53 52 52 52 51 52 52 52 53 54 56 58 60 62 62 62 61 60 58 56 54 51 49 48 49 51 53 57 56 57 61 63 65 68 68 67 65 65 65 66 64 62 62 61 61 61 61 62 63 64 64
69 68 66 65 63 59 58 58 58 60 62 61 61 62 61 59 58 59 60 59 57 54 52 51 50 49 50 50 51 51 51 51 53 54 56 56 56 55 54 53 53 53 54 54 54 55 56 57 59 60 61 62 62 61 59 57 54 52 50 50 51 53 54 56 58 59 61 64 65 66 68 69 66 64 64 65 65 64 64 64 63 62 62 63 63 64 64 64
72 71 70 69 66 63 62 60 58 58 60 59 58 59 59 58 58 59 60 59 55 52 51 50 49 49 50 51 52 53 54 55 57 58 58 57 56 55 55 55 55 56 56 56 56 57 57 58 60 60 61 62 61 59 57 54 52 52 53 54 55 56 56 58 60 61 65 66 65 66 69 69 66 65 65 66 67 66 66 65 64 64 64 63 63 63 63 63
68 69 69 68 67 64 63 61 59 59 62 62 58 57 57 58 58 59 60 58 54 52 52 52 53 54 55 56 57 59 60 60 60 60 59 59 59 59 59 58 57 56 56 56 57 58 58 59 60 61 61 62 61 58 55 53 53 55 56 57 57 57 58 60 62 65 68 69 66 67 69 69 67 67 68 68 67 66 66 65 65 64 62 60 59 59 59 60
66 66 66 67 68 67 64 62 60 60 63 65 62 59 58 58 58 59 59 57 55 55 56 56 55 55 56 57 58 59 59 58 58 58 58 59 60 61 60 59 57 54 54 55 56 57 58 60 62 63 63 63 61 58 56 55 57 58 58 58 59 60 61 62 66 69 69 69 69 69 70 69 68 67 68 67 64 64 64 64 63 61 59 58 58 59 60 61
64 65 64 65 68 69 67 65 63 60 61 63 64 62 60 59 59 59 59 57 56 56 57 57 56 56 56 56 56 57 56 55 55 56 58 58 58 58 56 56 55 55 55 55 56 57 60 63 65 64 64 64 61 59 58 59 59 60 60 60 60 61 63 66 69 71 69 70 72 71 70 70 68 66 66 65 62 62 61 61 61 61 61 62 63 64 64 64
59 59 60 61 62 64 64 64 63 61 59 59 60 60 60 59 59 60 59 57 56 58 59 59 58 58 57 56 55 54 54 55 56 58 58 57 55 55 55 56 57 58 57 58 59 60 62 65 66 64 63 61 59 59 59 60 61 61 61 62 62 64 67 69 71 71 70 72 73 71 70 70 68 66 65 62 61 61 61 61 62 63 63 63 63 63 63 63
60 59 58 59 58 57 56 57 59 60 59 57 56 56 57 58 59 59 59 59 60 61 61 61 60 58 58 57 56 55 55 57 59 59 57 55 55 57 59 61 61 61 61 60 61 62 63 65 66 64 62 61 59 60 60 61 63 63 63 64 65 68 70 71 71 71 71 73 72 69 69 69 67 66 64 61 61 63 62 61 62 62 62 61 61 61 62 62
64 63 63 62 61 58 56 56 57 59 59 56 54 52 54 57 60 61 62 62 62 61 60 60 59 58 58 58 58 59 60 61 60 57 52 50 51 53 55 58 59 60 62 62 62 64 64 66 67 66 64 63 62 62 63 63 65 65 65 66 68 69 69 69 69 69 69 70 69 67 69 70 67 64 62 62 62 63 62 61 62 62 62 61 61 61 61 62
67 66 65 65 63 62 61 60 59 60 59 56 53 51 54 58 60 61 63 62 61 59 57 57 57 57 58 60 62 63 62 59 55 51 49 49 52 53 55 59 61 61 63 64 64 65 65 66 66 64 63 63 61 61 64 65 66 68 70 70 69 68 67 67 67 66 66 67 67 68 70 69 64 61 62 62 61 61 61 61 62 61 61 62 61 61 62 63
70 70 69 68 67 66 65 64 65 65 63 59 57 55 57 59 61 64 66 65 63 61 59 56 56 57 60 61 62 62 60 58 58 57 58 59 61 62 63 65 65 64 63 62 62 63 63 63 62 61 63 64 63 64 66 66 69 74 75 71 67 65 64 64 64 64 64 65 67 68 68 65 62 62 63 62 60 61 62 61 61 61 61 61 61 62 63 63
Wind_Direction
223 225 226 228 230 233 236 238 241 244 247 250 253 255 258 260 263 265 268 270 271 270 268 265 262 257 255 252 250 249 248 249 251 252 254 257 259 260 263 266 268 271 274 277 281 283 284 286 288 289 290 291 292 293 297 298 299 299 299 298 295 293 292 290 289 289 290 293 297 301 305 305 305 305 306 307 302 297 300 304 305 305 309 315 320 322 323 324
225 227 229 231 234 237 239 242 244 247 249 252 254 257 260 262 265 267 269 270 269 268 265 262 259 257 255 254 253 253 252 253 254 256 258 259 261 263 266 268 270 272 274 277 280 282 284 285 286 288 289 291 291 294 296 297 297 297 296 294 290 289 287 285 285 286 288 292 297 302 306 306 305 306 307 309 304 301 304 304 303 303 306 310 316 321 324 325
228 229 232 234 236 238 241 244 246 249 251 253 256 259 262 264 267 269 269 269 267 265 263 260 257 256 254 254 254 255 255 256 257 259 261 263 264 266 268 269 270 272 274 277 279 281 283 284 285 287 289 290 291 294 296 296 295 294 292 289 286 284 283 282 282 283 286 291 297 302 305 305 305 306 307 307 305 305 306 302 300 301 305 309 312 316 319 320
230 232 234 236 238 240 243 245 248 250 253 255 257 260 263 265 267 268 268 267 265 263 260 258 256 255 255 255 256 258 259 260 261 263 264 266 267 269 270 271 272 274 275 277 279 280 282 283 285 286 288 290 291 294 294 294 292 290 288 285 282 281 281 281 280 281 284 290 296 301 304 303 304 306 306 307 307 306 306 302 300 301 304 307 309 312 314 315
233 235 236 238 240 242 244 247 249 252 255 257 259 262 264 266 267 267 265 263 261 259 257 256 255 255 255 256 258 260 262 263 265 266 267 269 271 271 272 273 275 276 277 278 279 281 282 283 285 286 288 290 292 293 293 292 291 289 287 285 282 281 281 282 281 282 285 291 296 300 302 303 305 306 306 306 306 304 302 301 302 302 303 305 308 311 312 312
236 237 239 240 242 244 246 249 251 254 256 259 261 263 265 266 266 264 262 259 257 255 254 253 254 255 256 258 260 262 264 265 268 270 270 272 273 274 274 275 277 278 278 279 281 282 283 284 286 288 289 291 292 293 293 291 290 289 287 287 284 282 282 283 284 285 289 293 296 300 301 301 303 303 302 303 302 300 299 299 301 302 303 305 307 309 309 309
239 240 241 243 244 246 248 250 252 255 257 260 261 263 264 264 263 261 258 256 254 253 252 252 253 254 257 259 262 265 267 268 270 272 273 273 274 275 276 277 278 279 280 281 282 283 284 286 287 288 290 291 291 291 290 289 289 289 287 287 285 283 283 283 285 288 291 293 295 299 298 297 298 297 298 300 299 298 297 297 299 301 303 306 306 306 307 306
241 242 243 245 246 248 250 252 254 256 258 260 261 261 261 260 259 257 256 254 254 253 253 254 256 257 260 263 266 269 271 273 274 275 275 276 276 277 277 278 279 280 281 283 283 284 285 286 287 287 288 288 288 287 287 287 287 287 286 285 284 284 284 283 284 287 290 292 293 295 294 293 295 295 295 296 295 295 296 297 299 301 304 306 306 306 306 305
242 243 244 246 247 249 251 253 255 256 258 259 259 258 257 257 255 255 254 254 254 255 256 258 260 262 264 267 270 273 274 276 276 276 277 277 278 278 278 279 279 281 282 283 284 284 284 285 285 285 284 284 284 284 286 286 287 286 285 284 283 283 284 283 284 286 288 289 289 291 291 293 295 295 293 292 292 293 295 297 299 302 303 304 305 306 307 306
243 244 245 247 248 250 252 254 255 256 256 256 256 256 255 254 254 254 255 255 256 257 258 260 262 264 266 268 271 274 274 275 276 275 275 276 276 277 277 278 279 280 282 283 284 284 284 284 284 283 283 283 283 284 286 288 288 287 286 284 283 284 284 284 285 287 288 289 289 291 292 295 297 295 294 292 292 293 294 296 299 302 303 304 305 305 306 306
245 245 246 248 249 250 252 252 253 254 254 254 254 254 254 254 254 255 256 257 258 259 260 262 263 265 267 269 271 272 273 273 273 272 273 273 274 275 276 277 278 279 280 281 281 282 282 283 283 282 283 284 284 285 287 288 288 287 286 286 285 285 286 286 288 290 292 292 292 293 294 297 299 296 295 293 293 294 295 297 301 303 304 304 305 305 304 303
247 247 248 249 249 250 250 251 251 251 252 252 253 253 254 255 256 257 258 259 260 261 262 263 264 266 267 269 269 270 270 270 269 269 271 272 274 275 276 276 277 278 279 279 279 280 280 281 281 281 282 284 285 286 287 287 287 286 286 286 286 286 287 288 291 294 294 293 294 294 294 297 298 296 295 294 294 295 296 299 302 303 303 303 303 303 302 299
248 248 249 249 249 250 250 250 250 250 251 252 253 255 256 257 258 259 260 261 262 263 263 264 265 266 267 267 267 267 266 266 267 268 270 272 274 275 275 276 277 278 278 278 278 278 279 279 279 280 282 283 284 285 285 285 285 284 284 284 282 283 286 289 293 296 295 294 294 294 295 296 295 293 292 292 293 294 296 300 301 301 300 298 297 296 296 296
249 249 250 250 250 250 250 250 251 251 252 253 255 256 257 258 259 260 262 262 263 264 265 265 265 266 266 265 265 264 264 264 266 269 271 272 273 274 275 275 276 277 277 277 278 278 278 278 279 280 280 282 283 283 284 284 284 285 285 283 281 281 284 291 296 298 297 295 295 295 296 298 294 289 288 289 291 292 294 298 298 297 296 293 291 290 291 292
249 250 251 251 251 251 251 251 252 253 253 255 256 257 258 259 260 261 262 263 264 264 265 265 265 265 264 263 263 263 264 265 267 269 271 272 273 273 274 275 275 276 277 277 278 278 278 278 279 280 281 282 284 284 284 284 284 285 283 282 282 284 286 292 297 298 296 294 294 294 295 298 295 288 286 287 287 289 293 295 295 294 293 291 290 291 292 292
248 249 250 251 251 252 252 252 253 254 254 255 256 257 258 259 261 261 262 263 263 264 264 264 265 264 263 263 262 263 265 266 268 270 271 272 272 273 274 274 275 276 277 277 278 278 278 278 280 281 282 284 285 286 283 281 282 281 281 282 284 285 286 288 292 293 292 290 290 291 294 296 294 289 286 284 284 287 290 291 290 289 289 290 291 293 294 293
247 248 249 250 251 251 252 252 253 254 255 255 256 257 258 259 259 260 261 261 262 262 263 263 264 264 264 263 263 264 265 266 268 269 271 272 272 273 274 274 275 276 277 277 278 278 279 280 281 282 284 286 286 282 279 279 279 278 281 284 284 284 284 286 289 288 286 286 287 290 293 292 291 289 286 284 286 287 287 286 285 286 288 290 293 294 294 293
247 247 248 249 250 251 251 252 253 254 254 255 256 256 257 257 258 259 260 260 261 261 262 263 263 264 264 264 263 264 264 266 267 268 270 271 272 274 274 275 275 276 277 278 279 279 279 281 282 282 285 286 282 278 277 279 280 280 282 283 282 282 283 287 289 286 284 284 286 291 293 292 291 288 286 288 292 291 289 287 287 287 289 292 294 295 295 295
246 247 248 248 249 250 251 251 252 253 254 254 255 255 256 257 257 258 259 259 260 261 262 262 262 263 264 264 264 263 263 264 265 267 269 271 272 273 273 274 275 276 277 278 279 279 281 281 281 284 287 283 278 277 279 281 282 282 282 281 281 282 285 289 288 286 286 287 290 293 294 294 294 291 290 294 296 295 294 293 290 289 291 293 294 295 295 294
245 246 247 248 249 249 250 251 251 252 253 254 255 255 256 256 257 257 258 259 259 260 261 261 262 262 263 263 263 263 263 264 265 267 269 270 271 271 273 274 275 276 277 278 278 279 281 280 281 286 284 278 277 279 282 283 283 282 281 281 282 285 288 289 287 287 289 291 294 295 294 294 295 293 295 297 297 297 296 294 292 290 291 294 295 293 292 291
245 245 246 248 249 249 250 251 251 252 253 254 255 256 256 257 257 257 257 258 258 259 259 260 261 261 263 263 262 263 263 264 265 267 268 269 270 271 273 273 274 275 275 275 277 279 278 278 282 283 278 276 278 281 281 281 281 281 282 282 284 287 289 287 285 286 289 293 295 294 293 294 294 294 295 295 295 296 295 293 292 292 294 295 293 290 288 287
245 245 245 247 248 249 250 251 251 252 253 254 255 256 257 257 258 258 258 257 257 259 259 260 261 261 262 263 263 264 264 265 265 265 266 268 269 271 271 271 272 273 273 275 277 277 276 277 279 276 274 276 278 279 280 280 281 281 281 282 285 287 287 285 284 286 288 291 293 292 293 293 293 294 294 295 295 295 293 291 291 293 295 294 290 288 286 285
246 246 245 245 246 247 248 249 250 251 252 253 254 256 257 258 259 260 260 259 258 259 261 262 262 263 262 263 265 265 265 266 265 264 265 267 269 269 270 271 271 271 273 276 277 275 274 276 276 273 273 276 277 278 279 280 280 280 280 282 285 284 283 284 285 286 288 289 290 291 291 291 292 294 294 294 294 293 291 289 290 293 293 290 287 286 285 283
248 248 247 246 246 246 247 249 250 251 252 253 254 255 257 258 260 261 262 262 260 259 262 263 263 263 262 263 264 265 267 266 265 265 265 266 267 268 270 270 270 272 274 275 273 272 274 276 275 274 275 276 276 277 278 279 278 278 279 282 283 281 282 285 285 285 286 288 288 288 288 289 291 292 293 293 292 290 288 289 291 292 290 287 285 284 282 280
248 249 249 249 248 248 248 248 249 251 252 253 255 256 257 258 259 260 261 262 260 257 258 262 263 262 262 263 264 265 266 266 266 266 266 266 266 267 269 269 270 271 272 272 271 272 274 276 275 274 275 275 276 277 278 278 277 278 279 281 281 281 283 285 285 285 285 286 287 287 288 290 293 292 291 290 289 287 287 289 291 290 289 287 286 284 282 279
248 249 250 251 251 250 250 250 251 252 253 254 255 256 257 258 259 260 262 263 261 258 256 258 261 262 263 264 265 266 266 266 267 267 267 266 266 267 268 269 270 271 270 270 270 273 274 274 273 273 274 275 276 278 277 276 278 279 279 279 280 282 283 283 283 284 285 285 286 286 287 292 295 293 290 288 286 286 288 290 289 288 287 286 286 284 282 279
248 248 250 251 251 252 252 252 252 252 254 255 256 257 258 260 261 262 264 264 262 260 258 257 259 262 264 265 266 267 267 268 268 267 267 267 268 268 269 270 270 269 269 269 271 273 273 271 271 272 273 275 276 276 275 276 279 280 278 279 282 284 283 283 283 284 285 286 286 286 287 292 294 292 290 286 285 287 289 289 287 286 285 285 284 283 281 279
247 248 249 250 251 252 252 252 253 254 256 257 258 259 260 261 263 263 265 266 264 262 261 259 259 262 265 266 267 267 268 269 268 268 268 268 268 268 269 269 269 268 269 270 271 272 271 270 271 272 273 274 274 273 274 277 279 279 279 281 283 282 283 283 283 284 284 285 286 287 289 291 293 292 290 288 288 289 289 287 286 285 284 283 282 281 280 278
246 247 248 249 250 251 251 252 254 256 257 258 259 260 261 262 263 265 265 264 264 264 263 263 263 264 265 268 269 270 270 270 269 269 268 267 267 267 267 268 268 268 269 270 271 271 271 271 270 271 272 272 272 272 275 277 279 280 280 280 281 281 282 282 282 283 283 285 287 289 289 288 290 293 291 290 291 291 289 289 288 286 284 283 282 281 279 278
245 246 247 248 249 250 252 252 254 256 257 258 259 260 262 262 264 265 264 262 263 266 266 266 266 267 269 271 272 272 271 270 270 269 268 266 266 266 266 267 267 268 268 269 270 270 271 270 270 271 270 270 270 272 275 277 279 280 279 280 280 280 281 281 282 282 283 286 288 288 287 284 288 293 293 291 290 290 290 290 288 287 286 285 284 283 282 281
246 246 247 248 249 250 251 252 254 255 256 257 258 260 262 264 264 263 262 262 264 267 268 268 268 269 271 272 271 269 268 268 268 268 267 266 265 265 265 266 266 266 267 268 269 269 269 269 270 271 270 271 272 273 275 277 278 279 278 279 279 279 280 280 281 281 282 286 287 286 284 282 286 292 291 290 291 290 290 289 287 286 285 285 284 284 283 283
246 247 248 248 249 250 251 252 254 255 255 257 259 261 263 264 263 261 262 264 265 267 267 269 270 271 271 269 267 266 265 264 264 264 264 263 263 263 263 264 264 266 267 267 267 268 269 271 273 273 274 274 274 275 276 277 277 277 277 277 277 279 279 279 281 281 283 285 285 284 282 282 287 291 289 290 291 289 287 286 285 285 285 284 284 283 283 283
246 247 248 249 249 251 251 252 254 254 255 257 259 261 261 260 261 262 265 267 267 268 269 269 270 270 269 266 264 263 262 261 259 258 259 260 260 260 260 262 263 265 266 267 267 268 270 272 274 275 275 275 275 276 276 276 276 276 277 277 278 279 279 281 282 282 282 282 282 282 280 283 291 293 291 290 288 285 284 284 283 283 283 283 283 283 283 283
246 247 248 249 250 251 251 251 252 253 255 257 259 259 258 258 262 264 266 267 266 268 268 267 267 267 265 264 262 260 260 258 257 256 256 257 257 257 258 260 262 263 266 267 268 270 271 272 272 273 274 274 275 275 276 276 277 278 278 277 278 280 281 282 281 280 280 280 281 281 280 285 292 293 291 289 285 283 282 282 282 282 281 281 282 283 283 284
247 248 250 251 250 250 250 250 251 253 255 257 258 258 258 261 264 266 266 267 266 265 263 261 261 261 261 260 260 259 258 258 257 256 256 256 256 257 259 261 263 265 267 269 271 271 271 272 272 272 273 273 274 275 276 277 277 278 277 278 280 281 280 279 277 278 279 278 280 282 283 287 290 291 291 287 284 283 282 282 281 281 281 281 282 283 284 285
247 249 251 252 252 251 249 249 250 253 255 255 255 258 262 263 265 266 265 263 261 259 256 255 257 258 259 260 259 259 259 258 257 256 255 256 258 260 262 264 266 268 270 272 273 273 274 275 276 275 274 274 274 275 275 276 276 276 277 279 280 279 277 276 276 277 276 276 280 284 285 289 291 292 292 287 285 285 283 282 281 281 282 282 283 284 284 285
247 248 250 251 252 251 249 249 250 252 254 253 252 257 262 262 261 261 259 256 256 256 254 253 256 259 261 261 259 257 257 257 257 257 257 259 261 263 265 267 268 270 272 272 273 274 277 278 278 277 276 274 274 275 275 275 275 276 278 279 278 276 275 275 275 276 275 276 280 285 289 291 292 292 292 287 285 284 282 282 282 282 282 282 282 283 283 284
246 247 248 249 250 249 248 248 249 250 251 250 250 254 258 257 256 256 256 256 257 256 254 255 258 260 260 260 258 256 255 256 257 258 258 261 262 264 266 268 269 270 271 272 274 276 277 279 279 278 278 278 277 276 275 275 276 277 277 276 275 275 274 274 274 276 278 278 281 288 292 293 293 292 290 285 283 282 282 282 282 282 282 281 280 280 281 281
247 246 245 246 247 246 246 245 246 246 247 249 250 252 253 254 257 258 258 259 259 257 256 257 258 259 259 259 257 254 255 257 258 259 260 261 264 265 267 269 270 271 272 272 274 275 277 278 279 280 280 280 278 276 275 276 276 275 275 274 274 274 274 275 275 277 278 278 280 286 290 292 294 291 285 282 281 281 281 281 282 282 281 280 280 280 281 281
244 246 246 245 246 245 242 241 242 243 245 247 248 247 248 252 256 258 258 258 260 259 259 258 257 257 258 258 255 253 255 258 259 261 262 264 266 268 269 271 271 270 270 271 273 275 277 279 280 280 280 279 277 277 277 276 275 274 274 275 276 277 276 275 274 276 278 277 279 282 283 287 290 286 281 282 283 283 283 283 283 282 281 281 281 282 282 282
241 245 246 247 249 247 240 237 238 240 241 243 244 244 246 250 253 254 254 255 257 259 259 258 256 256 255 254 253 252 254 258 260 262 263 264 267 269 270 270 268 267 269 271 273 275 277 278 279 279 279 278 277 277 276 276 276 276 276 277 277 276 273 271 273 278 279 279 280 281 280 283 285 283 283 285 286 286 286 285 285 283 282 283 283 283 282 281
241 243 243 244 248 247 238 235 236 237 237 240 242 244 246 249 251 252 252 252 254 255 254 254 254 253 252 252 254 255 258 261 262 263 264 266 268 270 271 268 266 266 269 271 272 274 275 275 276 277 278 277 276 276 276 276 277 277 277 278 276 272 271 273 276 279 280 279 280 281 281 283 285 285 285 287 287 287 287 287 286 284 284 284 283 282 282 281
242 243 242 242 244 243 237 235 236 237 238 240 242 243 244 247 249 249 249 250 251 251 251 250 249 248 249 251 255 258 260 263 264 265 267 268 270 271 269 267 266 267 269 270 272 274 275 276 277 278 278 277 277 277 278 279 280 279 277 276 274 273 275 277 278 280 280 279 281 282 282 285 286 286 287 287 287 287 287 286 285 284 284 284 283 282 282 281
239 241 241 242 242 238 236 236 237 238 240 240 241 241 243 245 246 247 248 248 248 249 249 248 247 248 251 254 256 258 260 261 263 265 266 266 267 267 266 265 266 268 270 271 273 275 276 278 279 279 278 277 277 278 279 280 280 277 275 274 274 275 277 277 278 279 280 280 281 282 284 286 287 287 286 285 285 286 286 285 285 285 285 284 283 282 281 280
233 236 238 239 238 236 236 237 238 238 240 240 240 240 242 243 244 245 245 246 247 249 249 249 250 253 255 256 257 258 259 261 262 263 263 264 265 265 265 266 267 269 270 273 275 276 277 277 277 277 276 277 278 279 279 278 275 273 274 275 277 277 277 277 278 278 279 281 282 282 284 286 287 287 287 285 285 285 285 285 285 284 284 283 282 281 279 278
230 232 235 236 235 235 237 239 238 237 238 239 239 239 240 242 242 242 243 245 248 250 250 250 251 251 251 253 254 256 258 259 259 260 261 262 263 264 265 266 267 269 271 272 273 274 274 274 275 275 276 277 278 278 277 275 273 274 275 277 278 277 277 277 277 278 280 283 283 283 285 286 286 286 286 285 285 284 284 284 283 281 280 279 277 276 276 275
230 231 232 233 234 234 236 237 237 237 237 238 239 238 238 240 241 242 244 246 248 247 246 246 246 246 248 250 252 254 255 255 256 258 260 261 261 263 264 266 267 268 269 270 271 272 272 273 274 275 276 277 277 276 275 275 275 275 276 277 277 276 275 275 276 278 281 283 283 285 286 285 285 286 285 284 284 284 282 281 279 278 278 277 277 276 276 276
232 232 232 233 234 235 236 237 237 236 235 237 239 239 238 240 241 242 242 242 241 241 242 243 244 246 249 250 251 251 251 253 255 258 260 260 261 262 264 265 266 267 268 270 271 272 273 273 274 275 275 274 273 272 272 273 273 274 275 277 276 275 275 276 277 280 281 281 283 285 285 283 284 285 284 284 283 281 279 277 277 278 279 278 278 278 278 278
236 236 236 238 239 239 239 239 236 234 233 235 238 239 239 240 240 240 239 238 238 239 241 243 245 247 249 249 249 250 252 255 258 260 262 264 265 266 266 266 267 268 269 271 272 273 273 274 275 274 273 272 270 270 270 270 272 273 275 277 276 276 276 277 280 281 281 281 283 284 282 281 282 282 282 281 280 278 277 278 279 280 279 278 278 278 278 278
238 239 240 241 242 241 241 239 236 235 234 234 236 237 239 240 240 239 238 238 239 240 241 243 245 248 250 251 251 253 256 259 261 262 264 264 264 265 266 266 268 269 270 272 273 274 274 274 273 272 271 270 270 270 270 271 273 274 277 278 276 276 278 281 282 281 280 281 282 282 279 279 281 281 280 278 276 277 278 279 279 279 278 278 278 278 279 279
239 240 241 242 242 241 240 239 237 237 236 236 236 236 236 238 239 239 240 240 241 243 245 247 248 249 251 253 254 256 258 260 260 260 258 256 257 259 262 264 267 268 271 273 273 273 272 271 271 270 269 270 272 272 271 273 274 275 278 280 279 279 282 282 280 279 280 281 280 278 278 280 281 279 276 276 277 278 279 278 278 277 278 278 279 280 280 280
240 241 241 242 242 241 240 239 239 238 238 239 239 237 237 238 238 239 241 242 243 246 250 251 250 250 251 252 254 256 258 259 259 258 257 258 260 262 264 266 268 270 271 271 271 271 271 271 271 271 270 272 273 273 273 274 274 276 280 283 282 282 281 278 277 278 279 279 277 277 278 280 279 276 276 277 278 278 278 278 278 278 279 279 280 280 280 280
Height
5863 5864 5864 5865 5866 5866 5868 5868 5868 5869 5870 5870 5870 5871 5872 5872 5872 5873 5874 5874 5874 5874 5874 5874 5875 5875 5876 5876 5876 5876 5876 5877 5877 5877 5878 5878 5878 5878 5878 5878 5878 5878 5878 5877 5877 5876 5876 5876 5876 5876 5876 5876 5875 5875 5875 5874 5874 5873 5873 5872 5872 5872 5872 5872 5872 5872 5871 5870 5870 5870 5870 5868 5868 5867 5866 5866 5864 5862 5861 5861 5860 5858 5858 5858 5858 5858 5858 5858
5860 5862 5862 5863 5864 5864 5866 5866 5866 5867 5868 5868 5869 5870 5870 5870 5870 5871 5872 5872 5872 5872 5872 5873 5873 5874 5874 5874 5874 5874 5875 5876 5876 5876 5876 5876 5876 5876 5876 5876 5876 5876 5876 5876 5876 5875 5874 5874 5874 5874 5874 5874 5873 5873 5873 5872 5872 5872 5871 5870 5870 5870 5870 5870 5870 5870 5870 5868 5868 5868 5868 5866 5866 5865 5865 5864 5862 5860 5860 5858 5857 5856 5856 5856 5858 5858 5858 5857
5858 5859 5860 5860 5862 5862 5863 5864 5864 5865 5866 5866 5867 5868 5868 5868 5869 5870 5870 5870 5870 5871 5871 5871 5872 5872 5872 5872 5872 5873 5873 5874 5874 5874 5874 5874 5874 5874 5874 5874 5874 5874 5874 5874 5874 5873 5873 5872 5872 5872 5872 5872 5871 5871 5872 5870 5870 5870 5869 5868 5868 5868 5868 5868 5868 5868 5868 5867 5866 5866 5866 5864 5863 5863 5863 5862 5861 5858 5858 5856 5856 5854 5854 5854 5856 5856 5856 5856
5856 5856 5857 5858 5859 5860 5860 5862 5862 5863 5864 5864 5865 5866 5866 5866 5867 5868 5868 5868 5868 5869 5869 5870 5870 5870 5870 5870 5870 5871 5871 5872 5872 5872 5872 5872 5872 5872 5872 5872 5872 5872 5872 5872 5872 5871 5870 5870 5870 5870 5870 5870 5869 5869 5870 5868 5868 5867 5866 5866 5866 5866 5866 5866 5866 5866 5866 5866 5864 5864 5864 5862 5861 5860 5860 5860 5859 5856 5854 5854 5854 5853 5852 5852 5853 5854 5854 5854
5853 5854 5854 5856 5856 5858 5858 5859 5860 5860 5861 5862 5862 5863 5864 5864 5865 5866 5866 5866 5866 5867 5868 5868 5868 5868 5868 5868 5868 5868 5869 5869 5870 5870 5870 5870 5870 5870 5869 5869 5869 5869 5869 5869 5869 5869 5868 5868 5868 5868 5868 5867 5867 5867 5867 5866 5866 5865 5864 5864 5864 5864 5863 5863 5863 5863 5864 5863 5862 5862 5862 5860 5860 5858 5858 5857 5856 5855 5853 5851 5851 5852 5852 5851 5851 5852 5852 5852
5850 5851 5852 5853 5854 5854 5856 5856 5857 5858 5858 5860 5860 5860 5862 5862 5862 5863 5864 5864 5864 5865 5866 5866 5866 5866 5866 5866 5866 5866 5866 5866 5867 5867 5867 5867 5866 5866 5866 5866 5866 5866 5866 5866 5866 5866 5866 5866 5866 5865 5864 5864 5864 5864 5864 5864 5864 5863 5862 5862 5862 5862 5862 5861 5860 5860 5861 5860 5860 5860 5860 5858 5858 5856 5855 5855 5854 5852 5852 5850 5849 5849 5850 5850 5850 5850 5850 5849
5848 5848 5850 5850 5851 5852 5853 5854 5854 5856 5856 5857 5858 5858 5859 5860 5860 5860 5861 5862 5862 5863 5864 5864 5864 5864 5864 5864 5864 5864 5864 5864 5864 5864 5864 5864 5864 5864 5864 5864 5864 5864 5864 5864 5864 5864 5864 5863 5863 5862 5862 5862 5862 5862 5862 5862 5862 5862 5861 5861 5860 5860 5860 5859 5858 5858 5858 5858 5858 5858 5857 5856 5857 5856 5854 5852 5851 5850 5849 5848 5848 5848 5848 5848 5848 5848 5848 5846
5844 5846 5846 5848 5848 5850 5850 5851 5852 5852 5854 5854 5855 5856 5856 5857 5858 5858 5858 5859 5860 5860 5860 5861 5862 5862 5862 5862 5862 5862 5861 5862 5862 5861 5861 5861 5861 5861 5861 5861 5861 5861 5861 5861 5861 5861 5860 5860 5860 5860 5860 5860 5859 5859 5860 5860 5860 5860 5860 5860 5859 5859 5858 5858 5858 5857 5857 5856 5856 5856 5855 5854 5855 5854 5852 5850 5848 5846 5846 5846 5846 5846 5846 5846 5844 5844 5844 5844
5842 5842 5844 5844 5846 5846 5848 5848 5849 5850 5850 5852 5852 5853 5854 5854 5855 5856 5856 5856 5857 5858 5858 5858 5858 5859 5859 5859 5860 5858 5858 5858 5858 5858 5858 5858 5858 5858 5858 5858 5858 5858 5858 5858 5858 5858 5858 5858 5858 5858 5858 5858 5858 5857 5857 5858 5858 5858 5858 5858 5857 5857 5856 5856 5856 5856 5856 5854 5854 5854 5853 5852 5852 5851 5849 5848 5846 5844 5844 5844 5844 5844 5844 5844 5842 5840 5840 5840
5838 5839 5840 5842 5842 5843 5844 5845 5846 5846 5848 5848 5849 5850 5850 5852 5852 5852 5853 5854 5854 5854 5855 5856 5856 5856 5856 5856 5857 5856 5854 5856 5855 5854 5855 5855 5856 5856 5856 5856 5856 5856 5856 5856 5856 5855 5855 5855 5856 5856 5856 5856 5855 5855 5855 5855 5855 5855 5855 5855 5854 5855 5854 5853 5854 5854 5852 5852 5850 5852 5851 5850 5850 5848 5846 5844 5843 5842 5842 5842 5842 5842 5842 5840 5840 5838 5838 5836
5834 5836 5836 5838 5838 5840 5840 5842 5842 5843 5844 5845 5846 5846 5848 5848 5849 5850 5850 5850 5851 5852 5852 5852 5852 5853 5854 5854 5854 5852 5852 5852 5852 5852 5852 5852 5852 5853 5853 5853 5853 5853 5853 5853 5853 5852 5852 5852 5852 5852 5852 5853 5852 5852 5852 5852 5852 5852 5852 5852 5851 5852 5852 5850 5850 5850 5850 5848 5846 5848 5848 5848 5847 5844 5842 5840 5840 5839 5838 5840 5840 5840 5838 5838 5837 5836 5836 5834
5830 5832 5833 5834 5835 5836 5837 5838 5839 5840 5841 5842 5842 5844 5844 5845 5846 5846 5846 5847 5848 5848 5848 5849 5850 5850 5850 5851 5851 5850 5849 5849 5849 5849 5849 5850 5850 5850 5850 5850 5850 5850 5850 5850 5850 5850 5849 5849 5849 5849 5850 5850 5850 5849 5849 5849 5848 5848 5848 5848 5848 5848 5848 5847 5847 5848 5846 5844 5843 5843 5845 5846 5845 5842 5838 5836 5836 5836 5836 5836 5837 5836 5836 5835 5834 5834 5833 5832
5827 5828 5830 5830 5832 5832 5834 5834 5836 5836 5838 5838 5840 5840 5841 5842 5842 5842 5843 5844 5844 5844 5845 5846 5846 5846 5847 5848 5847 5846 5846 5846 5846 5846 5846 5846 5847 5847 5847 5846 5846 5846 5846 5846 5846 5846 5846 5846 5846 5846 5846 5846 5846 5846 5846 5846 5844 5844 5844 5844 5844 5845 5846 5844 5844 5844 5842 5840 5840 5838 5841 5844 5843 5839 5836 5834 5832 5832 5832 5833 5833 5832 5832 5832 5832 5831 5830 5830
5823 5824 5826 5827 5828 5829 5830 5830 5832 5832 5834 5834 5836 5836 5837 5838 5838 5838 5839 5840 5840 5840 5840 5842 5842 5842 5844 5844 5844 5843 5843 5842 5842 5843 5843 5844 5844 5844 5844 5844 5844 5844 5843 5844 5844 5843 5842 5842 5842 5843 5844 5844 5844 5843 5842 5842 5841 5840 5840 5840 5840 5842 5844 5842 5841 5840 5838 5836 5836 5834 5836 5840 5841 5836 5833 5831 5830 5829 5829 5830 5830 5828 5828 5828 5828 5828 5828 5826
5818 5820 5822 5822 5824 5824 5826 5826 5828 5829 5830 5831 5832 5832 5833 5834 5834 5834 5834 5835 5836 5836 5836 5837 5838 5838 5840 5841 5840 5840 5840 5840 5840 5840 5840 5840 5840 5840 5840 5840 5840 5840 5840 5840 5840 5840 5840 5839 5840 5840 5840 5841 5840 5840 5838 5838 5838 5836 5836 5836 5836 5838 5840 5841 5839 5838 5835 5832 5832 5831 5832 5836 5837 5834 5830 5828 5827 5828 5827 5828 5826 5825 5824 5824 5824 5824 5824 5824
5814 5816 5816 5818 5819 5820 5821 5822 5824 5824 5826 5826 5828 5828 5828 5829 5830 5830 5830 5831 5831 5832 5832 5833 5834 5834 5836 5837 5837 5836 5836 5836 5836 5836 5836 5836 5836 5837 5837 5837 5837 5836 5836 5836 5836 5836 5836 5836 5836 5836 5838 5838 5837 5836 5834 5834 5835 5834 5832 5832 5834 5834 5836 5838 5838 5835 5832 5829 5828 5828 5828 5830 5832 5830 5828 5825 5824 5826 5826 5824 5824 5822 5821 5820 5820 5820 5820 5820
5809 5810 5812 5813 5814 5815 5816 5818 5820 5820 5821 5822 5823 5824 5824 5824 5825 5826 5826 5826 5827 5828 5828 5829 5830 5830 5831 5833 5833 5832 5832 5832 5832 5832 5832 5832 5833 5834 5834 5834 5834 5833 5833 5833 5832 5832 5832 5832 5832 5833 5834 5835 5834 5832 5830 5830 5832 5830 5829 5829 5830 5830 5830 5833 5834 5832 5828 5826 5824 5824 5826 5826 5827 5826 5823 5822 5822 5824 5824 5822 5821 5820 5818 5818 5818 5817 5816 5816
5804 5806 5807 5808 5810 5810 5812 5814 5815 5816 5817 5818 5818 5819 5820 5820 5820 5821 5822 5822 5823 5824 5824 5825 5826 5826 5827 5828 5828 5828 5828 5828 5829 5829 5829 5829 5830 5830 5830 5830 5830 5830 5830 5829 5829 5828 5828 5828 5829 5830 5832 5832 5830 5827 5826 5827 5828 5827 5827 5826 5826 5826 5826 5828 5830 5826 5824 5822 5822 5822 5822 5822 5823 5822 5820 5818 5819 5819 5819 5819 5818 5818 5816 5816 5815 5814 5813 5812
5799 5801 5802 5803 5804 5806 5807 5809 5810 5812 5812 5813 5814 5814 5815 5816 5816 5817 5818 5818 5818 5819 5820 5820 5821 5821 5822 5824 5824 5824 5824 5824 5825 5826 5826 5826 5826 5826 5826 5826 5826 5826 5826 5825 5824 5824 5824 5824 5825 5828 5829 5828 5824 5823 5823 5824 5824 5824 5824 5822 5822 5822 5824 5825 5824 5821 5818 5817 5818 5819 5817 5817 5818 5818 5816 5816 5816 5814 5814 5814 5814 5814 5813 5813 5812 5811 5810 5809
5794 5796 5797 5798 5800 5800 5802 5804 5806 5807 5808 5808 5809 5810 5810 5811 5812 5812 5812 5813 5814 5814 5815 5816 5816 5817 5818 5819 5819 5820 5820 5821 5822 5822 5822 5822 5822 5822 5822 5822 5822 5822 5822 5821 5820 5821 5821 5820 5822 5826 5825 5822 5820 5820 5820 5820 5820 5820 5820 5818 5818 5818 5820 5820 5818 5816 5814 5812 5814 5816 5813 5814 5814 5813 5812 5812 5811 5810 5810 5809 5809 5810 5810 5810 5808 5808 5807 5806
5790 5791 5792 5794 5794 5796 5798 5799 5800 5802 5803 5804 5804 5804 5806 5806 5806 5807 5808 5808 5810 5810 5810 5811 5812 5813 5814 5814 5814 5815 5816 5817 5818 5818 5818 5818 5818 5818 5818 5818 5818 5818 5818 5816 5816 5818 5816 5816 5820 5822 5819 5816 5817 5817 5816 5816 5816 5816 5815 5814 5814 5816 5816 5816 5814 5813 5811 5810 5810 5811 5810 5810 5810 5810 5808 5808 5808 5807 5806 5804 5804 5804 5805 5805 5804 5804 5803 5802
5786 5786 5788 5788 5790 5791 5792 5794 5796 5797 5798 5798 5799 5800 5800 5800 5801 5802 5802 5804 5805 5806 5806 5806 5807 5809 5810 5808 5809 5810 5811 5813 5814 5814 5814 5814 5814 5814 5813 5814 5814 5814 5813 5812 5813 5812 5811 5813 5817 5816 5813 5813 5814 5813 5812 5812 5812 5812 5810 5810 5811 5812 5810 5810 5810 5809 5808 5806 5806 5806 5806 5806 5806 5806 5806 5804 5804 5804 5802 5800 5800 5800 5801 5800 5800 5800 5798 5798
5780 5782 5783 5784 5784 5786 5788 5790 5791 5792 5793 5794 5794 5794 5795 5796 5796 5796 5797 5798 5800 5801 5800 5802 5802 5804 5804 5804 5804 5805 5806 5808 5810 5810 5810 5810 5810 5809 5808 5810 5810 5808 5809 5810 5809 5806 5806 5810 5812 5810 5808 5809 5808 5808 5808 5808 5807 5806 5806 5806 5807 5808 5806 5805 5806 5805 5803 5802 5802 5802 5801 5801 5802 5802 5802 5801 5801 5800 5798 5796 5796 5796 5796 5796 5796 5795 5794 5794
5776 5778 5778 5779 5780 5782 5784 5785 5786 5787 5788 5789 5790 5790 5790 5790 5791 5792 5792 5791 5794 5797 5796 5796 5796 5798 5799 5800 5800 5800 5802 5804 5804 5806 5807 5806 5805 5804 5804 5805 5804 5804 5806 5806 5804 5802 5804 5808 5806 5804 5804 5804 5804 5804 5804 5803 5802 5802 5802 5802 5802 5802 5801 5801 5802 5800 5799 5798 5798 5798 5796 5797 5798 5798 5798 5798 5796 5795 5793 5792 5792 5792 5792 5791 5791 5790 5790 5790
5771 5772 5774 5774 5775 5777 5778 5780 5782 5782 5783 5784 5784 5784 5785 5786 5786 5786 5786 5784 5786 5792 5793 5791 5791 5792 5794 5795 5796 5798 5797 5798 5800 5801 5802 5802 5800 5800 5800 5800 5800 5801 5802 5800 5798 5798 5801 5804 5800 5798 5799 5798 5798 5799 5799 5798 5796 5798 5799 5798 5798 5797 5798 5798 5796 5796 5796 5794 5794 5794 5792 5793 5796 5794 5793 5793 5791 5790 5789 5789 5789 5788 5787 5786 5786 5786 5786 5784
5766 5767 5768 5769 5770 5772 5774 5776 5777 5778 5778 5778 5778 5780 5780 5780 5781 5781 5781 5778 5778 5786 5789 5787 5786 5786 5788 5791 5792 5793 5792 5794 5796 5796 5796 5796 5796 5796 5796 5796 5796 5796 5796 5795 5793 5794 5798 5798 5795 5794 5794 5794 5794 5794 5794 5792 5792 5794 5795 5794 5793 5793 5794 5793 5792 5792 5792 5791 5790 5790 5788 5790 5792 5788 5788 5788 5786 5785 5786 5786 5785 5784 5783 5782 5782 5782 5780 5780
5760 5762 5763 5764 5765 5767 5769 5770 5772 5772 5773 5774 5774 5775 5775 5776 5776 5776 5776 5772 5771 5778 5782 5782 5782 5782 5784 5786 5788 5788 5788 5789 5791 5790 5790 5790 5790 5790 5790 5790 5791 5791 5790 5790 5789 5791 5793 5792 5790 5790 5790 5790 5790 5790 5788 5788 5788 5790 5790 5789 5788 5788 5788 5788 5788 5788 5787 5786 5786 5784 5786 5788 5786 5783 5782 5782 5782 5782 5782 5781 5780 5780 5779 5778 5777 5776 5776 5775
5754 5756 5757 5758 5760 5762 5764 5765 5766 5768 5768 5768 5769 5770 5770 5770 5771 5771 5771 5766 5764 5768 5773 5776 5778 5779 5780 5781 5782 5784 5782 5784 5784 5784 5785 5784 5784 5785 5784 5784 5786 5785 5784 5784 5785 5786 5786 5786 5786 5786 5786 5786 5786 5784 5784 5784 5784 5785 5785 5784 5784 5784 5784 5784 5784 5782 5783 5782 5780 5780 5784 5783 5781 5779 5776 5774 5778 5778 5776 5776 5775 5774 5774 5773 5772 5772 5770 5770
5748 5750 5752 5752 5754 5756 5758 5760 5762 5762 5763 5764 5764 5764 5764 5765 5766 5766 5766 5761 5758 5760 5764 5769 5773 5774 5775 5776 5776 5777 5777 5777 5776 5777 5778 5778 5778 5779 5778 5779 5780 5780 5780 5780 5780 5780 5780 5781 5781 5780 5781 5782 5780 5780 5780 5780 5780 5780 5780 5780 5780 5780 5779 5779 5778 5778 5778 5778 5776 5778 5780 5777 5776 5775 5771 5769 5772 5772 5770 5768 5768 5767 5767 5766 5766 5766 5764 5764
5742 5744 5746 5746 5748 5750 5752 5756 5757 5756 5757 5758 5758 5758 5759 5758 5760 5760 5757 5755 5754 5754 5757 5762 5766 5768 5770 5770 5770 5770 5770 5770 5770 5770 5771 5772 5772 5773 5774 5774 5774 5774 5774 5774 5776 5775 5776 5776 5776 5776 5776 5776 5776 5776 5776 5776 5776 5776 5776 5776 5775 5774 5774 5774 5774 5774 5774 5773 5774 5775 5775 5772 5770 5770 5768 5766 5766 5765 5764 5762 5760 5760 5759 5758 5758 5758 5756 5756
5736 5738 5740 5741 5743 5745 5748 5750 5750 5750 5750 5752 5752 5753 5753 5752 5753 5752 5748 5750 5752 5750 5750 5754 5758 5762 5764 5764 5764 5764 5764 5764 5764 5764 5765 5766 5766 5767 5768 5768 5768 5768 5768 5770 5770 5770 5770 5770 5770 5771 5771 5771 5772 5772 5772 5772 5772 5772 5771 5770 5770 5769 5769 5768 5768 5769 5768 5768 5769 5770 5769 5767 5764 5764 5764 5763 5760 5758 5758 5756 5754 5752 5752 5752 5750 5750 5749 5748
5730 5732 5733 5735 5737 5740 5742 5744 5744 5744 5744 5746 5746 5746 5747 5746 5742 5742 5744 5746 5747 5745 5746 5750 5752 5756 5758 5758 5758 5758 5758 5759 5760 5760 5760 5760 5761 5762 5763 5762 5763 5764 5764 5765 5766 5764 5764 5765 5766 5766 5766 5767 5767 5767 5767 5767 5766 5766 5766 5765 5764 5764 5762 5762 5764 5763 5762 5762 5763 5763 5762 5759 5758 5758 5758 5758 5755 5753 5750 5749 5748 5746 5744 5744 5744 5742 5742 5741
5723 5724 5726 5728 5732 5734 5736 5738 5738 5738 5739 5740 5740 5740 5740 5736 5732 5736 5740 5742 5742 5742 5744 5746 5748 5749 5750 5750 5752 5752 5752 5754 5754 5754 5754 5756 5756 5758 5758 5758 5758 5758 5758 5760 5760 5760 5760 5762 5762 5762 5762 5762 5762 5762 5762 5762 5761 5760 5760 5760 5758 5758 5756 5757 5758 5756 5754 5756 5756 5756 5753 5750 5752 5754 5753 5752 5748 5746 5744 5743 5742 5740 5738 5738 5736 5736 5736 5735
5716 5718 5720 5722 5726 5728 5730 5731 5731 5731 5733 5733 5732 5732 5730 5726 5727 5732 5735 5736 5738 5740 5740 5741 5742 5742 5742 5743 5744 5745 5746 5746 5748 5748 5750 5750 5752 5752 5752 5753 5754 5754 5754 5754 5754 5756 5756 5757 5758 5758 5757 5757 5757 5758 5756 5756 5755 5755 5755 5754 5753 5753 5751 5750 5750 5748 5747 5748 5749 5748 5745 5744 5746 5748 5748 5745 5742 5738 5738 5737 5735 5734 5732 5732 5731 5730 5729 5728
5708 5710 5713 5714 5718 5720 5722 5724 5724 5725 5726 5727 5724 5721 5720 5720 5724 5726 5729 5732 5734 5736 5736 5734 5734 5735 5736 5736 5738 5739 5740 5740 5742 5742 5743 5744 5746 5746 5748 5748 5748 5749 5749 5750 5750 5750 5750 5752 5752 5752 5752 5752 5752 5752 5751 5750 5750 5750 5750 5748 5748 5748 5746 5742 5741 5741 5740 5740 5741 5740 5738 5738 5742 5742 5742 5738 5734 5734 5732 5731 5729 5727 5726 5726 5725 5724 5722 5722
5701 5704 5706 5707 5710 5714 5716 5718 5719 5718 5719 5720 5715 5710 5712 5718 5720 5720 5724 5727 5728 5729 5729 5728 5728 5729 5730 5731 5732 5734 5734 5735 5736 5736 5737 5738 5740 5740 5742 5742 5742 5743 5744 5744 5744 5744 5744 5746 5746 5746 5746 5746 5746 5745 5745 5744 5744 5744 5744 5744 5744 5742 5738 5734 5732 5734 5734 5730 5732 5734 5732 5733 5735 5735 5735 5732 5728 5728 5725 5724 5723 5721 5720 5720 5718 5717 5715 5714
5694 5698 5698 5701 5705 5707 5708 5712 5712 5711 5712 5710 5704 5704 5708 5712 5714 5716 5717 5720 5721 5722 5722 5722 5723 5724 5724 5725 5726 5728 5728 5729 5730 5730 5732 5733 5734 5735 5736 5736 5736 5736 5738 5738 5738 5738 5738 5739 5740 5740 5740 5740 5740 5740 5739 5738 5738 5738 5738 5739 5737 5734 5731 5729 5726 5726 5725 5720 5722 5726 5726 5727 5726 5725 5728 5726 5724 5722 5718 5718 5718 5716 5716 5714 5712 5710 5707 5706
5688 5690 5690 5695 5699 5700 5702 5704 5705 5704 5704 5698 5695 5700 5704 5704 5707 5709 5710 5713 5715 5716 5717 5718 5718 5718 5718 5718 5720 5722 5722 5722 5724 5724 5726 5727 5728 5729 5730 5730 5730 5730 5731 5732 5731 5732 5732 5732 5734 5732 5732 5733 5734 5733 5732 5732 5732 5732 5732 5732 5730 5726 5724 5724 5720 5718 5717 5712 5710 5714 5718 5720 5720 5717 5718 5719 5718 5716 5714 5712 5712 5711 5710 5707 5704 5702 5700 5698
5682 5681 5682 5689 5692 5694 5696 5698 5697 5696 5692 5686 5688 5696 5698 5696 5700 5702 5704 5706 5708 5709 5711 5712 5713 5712 5712 5713 5714 5714 5714 5716 5718 5718 5720 5721 5721 5722 5724 5724 5724 5724 5724 5724 5724 5725 5725 5726 5726 5726 5726 5726 5726 5726 5726 5726 5726 5725 5724 5722 5722 5720 5718 5717 5714 5712 5710 5704 5702 5704 5706 5711 5714 5712 5708 5708 5711 5712 5709 5707 5706 5704 5702 5699 5696 5694 5692 5690
5675 5672 5675 5683 5685 5686 5690 5690 5687 5685 5682 5680 5684 5691 5692 5692 5693 5694 5697 5699 5700 5702 5704 5706 5707 5707 5708 5708 5708 5708 5708 5710 5712 5712 5714 5714 5714 5716 5717 5717 5718 5718 5717 5717 5718 5718 5718 5718 5720 5720 5719 5718 5718 5720 5720 5720 5718 5716 5715 5714 5714 5714 5712 5710 5706 5705 5703 5698 5696 5696 5694 5701 5708 5704 5699 5700 5703 5704 5702 5700 5699 5696 5692 5690 5688 5686 5684 5682
5668 5666 5670 5676 5678 5678 5681 5678 5674 5674 5674 5675 5680 5684 5686 5687 5688 5688 5690 5692 5694 5696 5698 5699 5700 5700 5701 5702 5702 5702 5704 5704 5706 5706 5707 5708 5708 5710 5710 5711 5711 5710 5710 5710 5710 5711 5710 5712 5713 5713 5712 5710 5712 5712 5712 5710 5708 5708 5708 5708 5708 5708 5706 5702 5698 5699 5698 5692 5690 5688 5683 5691 5700 5697 5693 5694 5694 5692 5692 5692 5690 5686 5683 5681 5679 5676 5674 5672
5660 5659 5664 5670 5670 5671 5671 5666 5665 5666 5666 5670 5675 5678 5680 5682 5683 5684 5684 5686 5688 5689 5691 5692 5692 5694 5694 5695 5696 5696 5697 5698 5699 5700 5700 5702 5702 5704 5704 5704 5704 5704 5704 5704 5704 5705 5704 5704 5706 5706 5706 5704 5704 5703 5703 5702 5701 5700 5700 5702 5703 5700 5699 5696 5690 5692 5692 5685 5684 5680 5673 5681 5691 5690 5688 5688 5684 5682 5682 5681 5679 5676 5674 5672 5670 5668 5665 5664
5650 5652 5658 5662 5662 5664 5662 5658 5658 5660 5662 5666 5670 5672 5674 5676 5678 5678 5678 5680 5680 5682 5684 5686 5686 5688 5688 5689 5690 5690 5690 5691 5691 5692 5694 5694 5696 5696 5697 5697 5697 5698 5698 5697 5697 5698 5697 5696 5696 5698 5698 5696 5695 5694 5694 5694 5694 5694 5694 5696 5696 5692 5692 5689 5684 5684 5680 5676 5678 5672 5665 5672 5681 5682 5682 5680 5674 5674 5673 5670 5668 5667 5666 5664 5660 5658 5656 5655
5643 5646 5648 5652 5655 5656 5651 5650 5653 5655 5657 5662 5663 5664 5667 5670 5672 5672 5674 5674 5675 5676 5678 5680 5681 5682 5682 5682 5682 5682 5683 5683 5684 5685 5687 5688 5690 5690 5690 5690 5690 5690 5690 5690 5689 5688 5688 5686 5687 5688 5688 5687 5686 5686 5686 5688 5689 5688 5688 5688 5686 5686 5685 5682 5678 5676 5668 5667 5671 5666 5660 5666 5671 5672 5672 5670 5666 5666 5663 5660 5660 5658 5656 5653 5650 5650 5648 5646
5636 5638 5640 5644 5647 5646 5642 5644 5648 5648 5650 5653 5655 5657 5660 5663 5665 5668 5668 5669 5670 5672 5672 5673 5674 5675 5674 5674 5675 5674 5675 5676 5676 5678 5680 5682 5682 5684 5683 5682 5684 5684 5683 5682 5681 5680 5680 5678 5678 5679 5678 5678 5680 5680 5681 5682 5681 5678 5679 5680 5679 5678 5677 5674 5671 5666 5659 5658 5662 5660 5658 5660 5662 5663 5660 5658 5658 5658 5654 5651 5651 5650 5647 5644 5642 5640 5639 5638
5628 5629 5632 5636 5638 5636 5636 5638 5640 5640 5642 5646 5647 5649 5652 5655 5658 5662 5662 5663 5664 5666 5665 5666 5666 5666 5666 5666 5667 5666 5668 5670 5670 5672 5674 5675 5674 5676 5676 5676 5676 5677 5676 5674 5674 5672 5672 5670 5671 5670 5670 5670 5672 5673 5673 5672 5671 5670 5670 5672 5673 5670 5669 5667 5661 5656 5654 5652 5650 5654 5654 5650 5653 5656 5650 5647 5648 5648 5646 5644 5642 5640 5639 5636 5634 5632 5630 5630
5620 5622 5625 5627 5627 5628 5629 5631 5632 5634 5636 5638 5638 5641 5646 5648 5652 5654 5656 5656 5658 5658 5658 5658 5658 5658 5658 5660 5660 5660 5662 5663 5662 5664 5666 5667 5667 5668 5668 5669 5669 5669 5668 5666 5665 5665 5664 5662 5664 5664 5662 5662 5664 5663 5663 5662 5662 5662 5663 5664 5666 5663 5661 5658 5652 5649 5652 5645 5640 5646 5646 5640 5644 5648 5642 5638 5640 5639 5636 5634 5632 5631 5631 5629 5626 5624 5622 5622
5612 5616 5618 5618 5618 5620 5624 5626 5628 5628 5630 5631 5631 5634 5638 5642 5644 5646 5648 5648 5649 5650 5650 5648 5650 5651 5652 5654 5653 5653 5654 5655 5656 5657 5658 5659 5660 5661 5661 5661 5660 5661 5661 5658 5658 5658 5655 5654 5658 5656 5653 5654 5654 5654 5655 5654 5654 5654 5656 5656 5658 5655 5652 5649 5646 5646 5645 5636 5633 5639 5637 5632 5636 5640 5634 5632 5632 5628 5626 5625 5623 5623 5622 5620 5618 5616 5615 5613
5606 5608 5610 5611 5612 5616 5618 5620 5622 5622 5624 5625 5624 5627 5632 5634 5635 5637 5638 5638 5638 5640 5641 5640 5644 5646 5646 5645 5644 5644 5646 5648 5649 5651 5652 5652 5652 5652 5652 5652 5652 5654 5653 5651 5650 5650 5646 5645 5648 5648 5644 5646 5647 5646 5647 5647 5646 5646 5648 5650 5648 5645 5642 5641 5640 5640 5635 5628 5628 5631 5626 5624 5630 5631 5626 5625 5622 5616 5616 5617 5616 5615 5612 5610 5609 5608 5607 5604
5599 5601 5603 5604 5606 5610 5612 5612 5614 5616 5617 5617 5617 5621 5624 5625 5627 5629 5630 5630 5630 5633 5634 5636 5640 5640 5636 5636 5636 5638 5642 5643 5642 5645 5646 5644 5643 5643 5643 5643 5644 5644 5644 5644 5642 5641 5639 5638 5638 5638 5636 5636 5640 5640 5638 5638 5638 5637 5640 5641 5638 5636 5636 5635 5633 5630 5626 5622 5622 5620 5613 5614 5623 5623 5617 5614 5612 5608 5610 5610 5608 5606 5603 5602 5601 5600 5599 5597
5590 5592 5595 5596 5598 5601 5603 5605 5608 5608 5608 5610 5612 5616 5616 5617 5621 5622 5621 5622 5624 5626 5628 5630 5633 5632 5628 5628 5628 5632 5638 5637 5636 5638 5639 5635 5634 5636 5635 5634 5636 5636 5636 5636 5634 5632 5632 5629 5628 5630 5626 5626 5633 5632 5628 5630 5628 5626 5630 5632 5630 5629 5630 5628 5622 5620 5618 5615 5612 5608 5603 5607 5615 5612 5605 5604 5604 5602 5602 5601 5599 5598 5596 5594 5594 5592 5590 5588
5582 5583 5586 5586 5588 5592 5594 5597 5598 5598 5602 5606 5608 5609 5609 5611 5615 5614 5611 5614 5618 5618 5620 5622 5624 5622 5620 5620 5624 5628 5630 5626 5626 5628 5628 5626 5626 5628 5626 5626 5628 5628 5628 5628 5626 5623 5622 5620 5620 5620 5616 5616 5622 5623 5620 5620 5616 5612 5621 5627 5624 5622 5622 5616 5613 5614 5612 5607 5600 5597 5597 5600 5602 5598 5596 5598 5598 5594 5592 5592 5590 5590 5588 5587 5586 5585 5582 5580